Hourly Weather Roundup
Issued by NWS Central Illinois

Home | Current Version | Previous Version | Graphics & Text | Print | Product List | Glossary On
Versions: 1 2 3 4 5 6 7 8 9 10 11 12 13 14 15 16 17 18 19 20 21 22 23 24 25 26 27 28 29 30 31 32 33 34 35 36 37 38 39 40 41 42 43 44 45 46 47 48 49 50
215
NZUS43 KILX 271210
HWRILX

AREA WEATHER ROUNDUP
NATIONAL WEATHER SERVICE, LINCOLN IL
600 AM CST MON FEB 27 2017


CITY           SKY/WX    TMP DP  RH WIND       PRES   REMARKS
BLOOMINGTON    CLEAR     26  25  96 S6        30.13S WCI  19
6HR MIN TEMP:  25; 6HR MAX TEMP:  33;

CHAMPAIGN      CLOUDY    38  32  79 SE6       30.16R WCI  33
6HR MIN TEMP:  32; 6HR MAX TEMP:  38;

DECATUR        CLOUDY    38  34  85 SE6       30.15R WCI  33
6HR MIN TEMP:  31; 6HR MAX TEMP:  38; 6HR PCP:  0.01;

EFFINGHAM      CLOUDY    41  36  82 E5        30.17R
6HR MIN TEMP:  39; 6HR MAX TEMP:  41;

FLORA          CLOUDY    44  35  72 SE5       30.15S
6HR MIN TEMP:  42; 6HR MAX TEMP:  44;

GALESBURG      PTCLDY    29  29 100 SE6         N/A  WCI  23
6HR MIN TEMP:  26; 6HR MAX TEMP:  32;

JACKSONVILLE   CLOUDY    33  31  94 SE7       30.12R WCI  26
6HR MIN TEMP:  29; 6HR MAX TEMP:  38;

LACON          CLEAR     29  27  92 SE5       30.11S WCI  24
6HR MIN TEMP:  29; 6HR MAX TEMP:  35;

LAWRENCEVILLE  CLOUDY    44  34  67 S10       30.18R
6HR MIN TEMP:  42; 6HR MAX TEMP:  46;

LITCHFIELD     MOCLDY    38  33  85 SE6       30.12S WCI  33
6HR MIN TEMP:  38; 6HR MAX TEMP:  39;

$$


CITY           SKY/WX    TMP DP  RH WIND       PRES   REMARKS
LINCOLN        PTCLDY    32  30  95 CALM      30.14S
6HR MIN TEMP:  24; 6HR MAX TEMP:  32;

MACOMB         CLEAR     25  25  99 CALM      30.12S
6HR MIN TEMP:  25; 6HR MAX TEMP:  33;

MATTOON        CLOUDY    40  34  79 E5        30.15R
6HR MIN TEMP:  39; 6HR MAX TEMP:  41;

MT CARMEL AP   CLOUDY    43  34  69 SE6       30.17R
6HR MIN TEMP:  41; 6HR MAX TEMP:  45;

OLNEY-NOBLE AP CLOUDY    43  36  75 SE6       30.16S
PARIS          CLOUDY    39  35  83 SE5       30.18R
6HR MIN TEMP:  39; 6HR MAX TEMP:  41;

PEORIA         CLEAR     29  27  92 CALM      30.12R
6HR MIN TEMP:  28; 6HR MAX TEMP:  32;

PONTIAC        CLEAR     27  27  99 S6        30.15R WCI  21
6HR MIN TEMP:  26; 6HR MAX TEMP:  36;

RANTOUL        CLOUDY    33  29  83 SE5       30.16R WCI  29
6HR MIN TEMP:  29; 6HR MAX TEMP:  35;

SPRINGFIELD    CLOUDY    36  32  85 E6        30.14R WCI  31
6HR MIN TEMP:  32; 6HR MAX TEMP:  38;

TAYLORVILLE    CLOUDY    38  34  84 E5        30.14R WCI  35
6HR MIN TEMP:  34; 6HR MAX TEMP:  38;

$$

...REGIONAL REPORTS...


CITY           SKY/WX    TMP DP  RH WIND       PRES   REMARKS
CHICAGO O`HARE PTCLDY    29  23  78 S5        30.12R WCI  24
KANKAKEE       CLEAR     26  24  89 CALM      30.15R
MOLINE         CLEAR     30  26  85 CALM      30.09R
MOUNT STERLING CLEAR     30  30  98 SE5       30.09S WCI  26
MOUNT VERNON   CLOUDY    44  36  73 SE5       30.14R
PITTSFIELD     MOCLDY    32  32  99 E3        30.11R FOG
QUINCY         CLEAR     33  31  92 SE8       30.08S WCI  26
ROCKFORD       CLEAR     25  22  88 CALM      30.12R
$$


CITY           SKY/WX    TMP DP  RH WIND       PRES   REMARKS
BURLINGTON     CLEAR     29  28  96 S3        30.08S FOG
CEDAR RAPIDS   MOCLDY    27  25  92 E5        30.04R WCI  22
DES MOINES     CLEAR     29  21  72 SE5       30.01S WCI  24
KIRKSVILLE     FOG       24  22  91 S5        30.06R VSB 1/4 WCI  18
OTTUMWA        PTCLDY    30  29  96 S10       30.04R WCI  21
ST LOUIS       PTCLDY    38  33  82 E5        30.11R WCI  34
$$


CITY           SKY/WX    TMP DP  RH WIND       PRES   REMARKS
TERRE HAUTE    CLOUDY    41  33  73 E3        30.18R
EVANSVILLE     LGT RAIN  44  40  85 SE5       30.18S
INDIANAPOLIS   CLOUDY    40  32  73 SE6       30.19S
LAFAYETTE      CLOUDY    34  29  82 CALM      30.17R
MADISON        PTCLDY    23  20  88 S3        30.08R
MILWAUKEE      PTCLDY    24  20  84 CALM      30.11R
$$






USA.gov is the U.S. government's official web portal to all federal, state and local government web resources and services.